sat.trackr.live / text

‹ back to catalog

TRANSPORTER-13 OBJECT BC

NORAD 63260 · 2025-052BC

PAYLOAD ACTIVE UNKNOWN

§ Identity

Operator
Country
TBD
Launch date
2025-03-15
Launch site
AFWTR
Launch vehicle
Mass (kg)
RCS (m²)

External: N2YO · Heavens-Above · Gunter

§ Orbital elements

Epoch: 2026-09-22T16:24:37.771200Z

Period
96.33 min
Inclination
97.6690°
Eccentricity
0.0002375
Mean motion
14.94906132 rev/d
Perigee alt
581.0 km
Apogee alt
584.3 km
Semi-major
6,960.8 km
B*
5.9284e-5
RAAN
154.9891°
Arg perigee
45.7593°
Mean anomaly
314.3823°
Rev number
8,319

§ Raw data

TRANSPORTER-13 OBJECT BC1 63260U 25052BC  26265.68377050  .00000591  00000+0  59284-4 0  99942 63260  97.6690 154.9891 0002375  45.7593 314.3823 14.94906132 83197

JSON: /api/v1/satellites/63260 · /tle

For live sub-satellite position, see the globe view (requires WebGL).

§ Visibility from observer

Set your observer location to see the next 7 days of passes ≥ 10°. The values pass through the URL so the page stays shareable.

No JS? Fill the form by hand. The geolocation button needs JavaScript.